Wind_Speed
82 82 84 85 85 86 87 89 92 93 91 90 89 89 89 88 86 83 80 77 72 66 60 55 50 45 43 44 46 48 50 53 57 60 62 65 68 72 74 77 81 84 88 92 96 99 104 108 112 116 119 122 125 128 131 134 137 139 141 143 144 144 146 148 150 151 153 156 157 159 159 159 159 157 156 154 153 152 150 149 147 145 145 145 144
81 82 83 85 85 87 89 92 94 93 92 92 91 91 90 88 87 84 81 77 73 68 62 57 52 48 44 43 44 45 47 49 53 57 60 60 62 67 70 72 76 80 84 87 91 94 98 103 107 111 115 118 122 126 129 132 134 137 140 142 144 144 145 147 148 149 151 153 155 157 160 161 161 161 160 158 155 154 153 153 151 149 148 148 146
81 81 83 85 86 89 92 94 95 94 93 93 92 92 91 90 88 86 82 79 75 70 64 58 53 49 45 43 42 43 44 45 48 52 56 56 57 61 65 68 70 74 79 82 86 90 94 99 103 107 111 114 118 122 125 129 132 134 137 140 143 144 145 146 147 148 150 151 152 155 158 160 161 162 162 161 159 156 156 155 155 153 152 151 149
80 81 82 84 87 90 93 95 96 95 94 94 94 93 93 91 89 87 84 80 76 71 66 60 54 50 47 43 42 42 42 43 45 47 50 53 54 56 59 63 65 68 73 77 81 85 90 94 99 102 106 110 114 117 121 124 128 131 134 138 141 143 145 146 147 148 149 150 151 153 155 157 159 161 163 163 162 159 158 158 158 157 156 154 152
79 80 82 85 88 91 94 95 96 95 94 95 95 94 94 93 91 88 85 81 76 71 67 62 57 54 49 44 41 40 41 42 42 44 46 48 50 52 54 57 61 64 67 71 75 80 85 90 94 98 102 106 110 113 116 119 123 127 131 134 138 141 144 146 148 148 148 149 150 151 153 154 156 157 160 162 163 163 162 161 161 161 159 158 156
78 79 82 85 88 91 93 95 95 95 95 95 96 96 95 94 92 89 86 83 78 73 69 65 61 57 53 47 42 38 38 39 40 41 42 44 46 49 50 53 57 60 62 65 69 74 80 85 89 94 98 102 105 108 112 115 119 123 127 131 135 138 142 145 147 149 149 149 150 151 152 153 153 154 156 159 161 163 164 164 164 164 163 161 159
77 79 82 85 89 91 93 95 95 95 95 96 96 97 96 95 93 91 88 85 80 76 72 68 64 59 55 51 46 41 37 36 38 39 40 41 43 45 47 49 53 57 60 62 64 69 74 79 84 89 93 97 101 104 108 111 114 118 122 127 131 135 139 142 146 148 149 150 150 151 152 152 153 153 154 156 158 161 163 165 165 165 165 165 163
77 79 82 85 89 91 93 94 95 95 95 96 97 97 97 96 94 92 90 87 83 79 74 69 65 61 57 53 49 45 40 36 35 36 37 39 40 42 43 46 49 53 56 59 62 65 69 74 79 84 88 93 97 100 104 107 110 114 117 122 127 131 135 139 143 147 149 150 151 152 152 153 153 154 154 154 156 158 160 163 165 166 166 166 165
76 79 82 85 88 90 93 94 94 95 96 97 97 97 97 96 95 93 91 89 85 82 77 70 66 62 59 55 51 47 43 39 35 34 35 37 38 40 41 42 45 49 52 56 59 62 65 69 74 78 83 88 92 96 100 103 106 109 113 117 121 126 131 135 139 143 147 149 150 152 152 153 154 154 155 155 155 157 158 160 163 164 165 165 165
76 80 83 85 88 90 92 94 94 95 96 96 96 97 97 97 96 95 93 91 89 85 80 73 66 63 60 56 53 50 46 41 38 35 34 35 36 38 40 41 42 45 49 52 55 58 61 65 69 73 78 83 87 91 96 99 102 105 109 112 116 121 126 130 135 139 143 146 149 150 152 153 155 155 156 156 156 156 157 159 161 162 163 164 164
77 80 83 86 88 90 92 93 94 95 95 96 96 97 97 98 97 96 95 93 91 88 83 76 69 63 60 57 54 51 48 44 40 37 35 34 34 36 38 40 41 43 45 48 52 55 58 61 65 69 73 77 82 86 90 95 98 102 105 108 112 116 120 125 130 135 139 143 146 148 150 152 155 156 157 158 158 157 157 158 160 161 162 162 163
77 80 83 86 88 90 92 93 94 95 95 95 96 97 98 98 98 98 97 95 94 91 87 80 73 66 61 58 54 51 48 45 42 40 38 36 34 34 35 37 40 42 43 45 48 52 55 58 61 65 69 72 76 80 85 89 94 98 101 104 108 112 115 120 125 130 135 139 143 146 148 151 153 156 157 159 159 159 159 159 160 160 161 161 162
77 81 84 86 89 91 92 93 94 95 95 95 96 97 98 99 99 99 98 97 96 94 90 84 77 70 64 59 56 52 48 45 43 41 39 38 36 34 33 34 36 39 42 44 46 49 52 55 59 62 65 68 71 75 79 84 88 93 97 101 104 108 112 115 119 124 129 134 138 142 145 148 151 153 156 159 160 161 161 160 161 161 161 161 162
78 81 84 86 89 91 91 93 94 95 95 96 97 98 99 100 100 100 99 99 97 96 93 88 81 74 67 62 58 55 50 46 43 41 39 38 38 36 34 33 34 35 38 41 44 47 49 52 55 59 62 65 68 71 74 79 83 87 92 96 100 104 108 111 115 119 123 128 133 138 141 144 148 151 154 157 160 162 162 162 162 162 162 161 162
78 81 84 87 89 91 91 93 94 95 96 97 98 100 101 101 101 101 101 100 99 97 95 91 85 79 72 66 61 57 53 48 44 41 39 38 37 37 36 35 33 34 35 38 41 44 47 49 52 55 58 62 65 67 70 74 78 83 87 91 96 100 103 107 111 115 118 123 128 133 137 141 144 148 152 155 158 160 162 163 164 164 164 163 162
78 81 84 87 89 91 92 93 95 96 98 99 101 101 102 103 102 102 102 102 101 99 98 95 89 83 77 71 65 60 56 52 47 43 40 39 38 37 36 35 34 34 34 35 37 40 44 46 49 52 54 57 60 64 67 70 73 77 82 87 91 95 99 103 107 111 115 119 123 128 133 137 141 145 149 152 155 158 160 162 164 165 165 164 164
79 82 85 87 89 91 94 95 96 97 98 101 102 103 103 104 104 103 103 103 103 102 100 97 93 87 80 75 69 63 58 54 50 46 42 39 38 38 37 36 35 35 34 34 35 37 40 43 46 49 51 53 55 59 63 67 70 73 77 81 86 90 95 99 103 107 111 116 120 124 127 131 136 141 144 148 151 155 157 159 162 163 165 165 165
80 83 85 87 89 92 94 97 98 99 100 101 103 104 104 105 105 105 105 104 103 103 101 99 96 90 83 78 72 66 60 56 53 49 44 41 39 38 38 37 36 35 35 35 34 34 37 40 42 45 48 50 52 54 58 62 66 70 73 76 80 85 89 94 98 103 107 111 116 120 123 126 130 135 139 143 146 150 154 156 159 161 162 164 165
82 84 85 87 89 92 95 98 100 102 102 102 103 104 105 106 106 106 106 106 105 103 102 100 97 93 86 80 75 69 63 58 55 51 47 43 40 38 37 38 37 35 34 35 35 35 34 36 39 42 45 47 49 51 54 58 62 65 69 73 76 80 84 89 94 98 103 107 112 116 119 121 125 129 132 136 140 144 148 152 155 158 160 161 163
82 84 86 88 90 93 96 98 101 103 104 104 104 104 105 106 107 107 107 106 105 104 103 101 98 95 89 83 77 72 66 60 56 53 50 46 42 39 37 37 38 37 35 34 35 36 35 35 35 37 41 44 46 48 51 54 58 61 65 69 73 76 80 84 89 94 98 102 106 111 114 116 120 125 128 131 134 138 142 146 149 153 156 158 159
83 84 87 89 92 94 97 100 102 103 105 105 105 105 105 106 107 108 108 107 105 104 103 101 99 96 92 85 79 73 69 63 58 54 52 48 44 41 38 36 36 37 37 35 34 34 36 36 35 35 37 40 43 46 48 51 54 57 60 64 68 73 77 80 84 88 93 98 102 105 109 112 116 120 125 128 130 133 136 140 144 147 151 153 156
84 86 89 91 94 96 99 101 103 104 105 106 106 106 106 107 108 108 108 107 106 105 103 101 99 97 93 87 81 75 71 65 60 55 52 50 47 43 40 38 36 36 37 37 35 33 34 36 36 36 35 37 40 43 45 47 50 54 57 60 63 68 73 77 80 83 87 92 97 101 104 107 111 116 120 124 126 129 132 134 137 141 145 148 151
86 89 91 94 96 98 100 102 104 105 106 106 107 108 108 108 108 109 108 107 106 105 104 102 99 97 94 89 83 77 73 68 62 57 53 51 49 45 42 40 38 36 36 36 37 35 33 34 35 36 35 35 37 40 42 45 47 50 53 56 59 63 68 73 76 79 82 86 91 95 99 102 106 110 114 118 122 125 128 130 132 135 138 142 145
89 92 94 96 98 100 101 103 105 106 107 108 108 109 110 110 109 109 109 108 106 105 104 102 100 97 94 90 85 79 75 70 65 59 54 51 49 47 44 41 39 37 36 36 36 36 35 33 33 35 35 35 34 36 39 42 44 46 49 52 56 59 63 67 72 75 78 81 85 89 93 97 100 103 107 112 116 120 123 126 128 131 133 136 139
91 94 96 98 100 102 103 105 106 108 109 110 110 111 111 111 111 110 109 108 107 105 103 102 100 97 94 90 86 81 77 72 68 62 56 51 49 48 45 42 39 38 37 37 36 35 35 35 33 33 34 35 34 34 36 39 42 43 45 48 52 55 58 62 67 70 73 76 79 83 87 91 94 97 101 105 110 114 117 120 123 126 129 131 134
92 95 97 100 101 103 105 106 108 109 110 111 112 112 113 112 112 111 110 109 107 105 103 101 99 97 93 90 86 82 78 74 70 65 59 53 49 48 46 44 41 38 37 37 37 36 35 34 34 33 33 34 35 34 34 35 38 41 43 45 48 51 54 57 61 65 69 72 75 78 81 85 88 92 96 100 103 107 110 114 117 121 124 127 129
94 97 99 101 103 105 107 108 110 111 112 113 113 114 114 114 113 112 110 109 107 105 103 101 99 96 93 89 86 83 79 75 72 67 61 56 51 48 47 45 43 40 37 36 36 36 36 35 34 34 33 32 33 34 34 33 34 37 40 42 44 47 50 53 56 60 64 67 71 74 77 80 83 87 91 95 98 100 103 107 111 115 119 121 124
96 98 101 103 105 107 109 111 112 113 114 115 115 115 115 115 114 113 111 109 107 104 102 100 98 96 92 88 84 82 80 76 73 69 64 58 53 49 47 45 44 42 39 36 35 35 36 36 35 34 34 33 32 32 33 34 33 34 37 40 41 43 46 49 51 54 58 62 66 70 73 76 79 82 86 90 93 95 98 101 105 109 113 116 118
98 101 103 105 107 109 111 113 114 115 116 116 116 116 116 116 115 113 111 108 106 103 101 99 97 95 91 86 82 80 79 76 74 70 66 60 55 50 48 46 45 43 41 38 35 34 34 35 35 34 34 33 33 32 31 32 33 34 34 37 39 41 42 45 48 50 53 57 61 65 69 72 75 77 81 84 87 90 93 96 100 103 106 109 112
101 103 106 108 110 112 113 115 116 117 117 118 118 118 117 116 115 113 110 107 104 102 99 98 96 94 90 85 81 78 77 76 73 71 67 63 57 52 48 46 45 44 43 40 37 34 33 33 34 34 34 33 33 33 32 31 32 33 34 34 36 38 40 42 44 47 49 52 56 61 64 68 71 73 76 79 82 85 88 92 95 98 100 102 105
104 106 108 110 112 114 115 117 118 118 119 118 118 118 117 116 114 112 109 106 103 101 98 96 94 92 89 84 79 77 76 74 73 71 68 65 60 55 50 47 45 44 43 42 39 36 33 32 33 33 33 34 33 33 33 32 31 31 33 33 34 36 38 39 41 43 46 48 52 56 60 64 67 69 72 75 78 81 84 87 90 93 95 97 99
106 109 111 113 114 116 117 118 119 120 120 119 118 118 117 116 113 111 108 105 102 99 97 95 93 90 87 83 78 75 74 73 72 70 68 66 62 57 53 48 45 44 44 43 41 38 35 33 32 32 32 33 33 32 32 33 32 31 31 33 33 34 36 38 39 41 43 45 48 51 55 59 63 66 68 71 74 76 79 83 86 88 90 93 95
108 110 113 115 116 118 119 119 120 120 120 120 118 117 116 114 112 110 107 104 101 98 96 94 91 89 85 81 77 74 73 72 71 69 67 66 63 59 55 51 47 44 43 43 42 40 37 34 32 31 31 31 32 32 32 32 33 32 31 31 32 33 34 36 38 39 40 42 45 48 51 54 58 62 65 67 70 73 76 78 81 84 86 88 90
109 111 114 116 118 119 120 121 121 121 120 120 118 117 115 113 110 107 105 102 99 96 94 92 89 87 83 79 75 73 71 71 70 68 66 65 63 60 56 53 49 45 43 43 42 41 39 36 34 32 31 30 30 31 31 31 32 33 33 31 31 32 33 34 35 38 39 40 42 45 48 51 54 57 60 63 66 69 72 75 77 79 81 83 85
111 113 115 118 120 121 121 121 121 120 120 119 118 116 113 111 108 105 102 100 97 94 92 89 87 84 81 77 74 71 70 70 69 67 65 64 62 60 57 53 51 47 44 42 42 41 40 38 35 33 32 31 29 30 31 31 30 31 33 32 31 31 32 33 34 35 37 39 40 42 44 47 50 53 56 59 62 65 68 71 73 75 77 79 81
112 114 117 119 121 122 122 122 121 120 119 118 117 114 111 108 105 102 99 97 94 92 89 86 84 82 79 75 72 70 69 69 68 66 64 63 62 60 57 54 52 49 45 43 42 42 40 38 36 34 32 32 30 28 29 30 30 30 31 32 32 31 31 32 33 34 35 37 39 41 42 44 47 50 53 55 58 60 63 66 70 72 74 76 77
115 116 118 120 121 122 122 121 120 119 118 117 115 112 108 105 102 98 96 93 91 88 86 84 81 79 76 73 70 68 68 67 67 65 64 62 61 59 57 55 52 50 47 44 42 42 40 39 37 35 32 32 32 30 28 28 29 29 29 31 32 32 31 31 32 33 34 35 37 39 41 42 44 46 49 52 54 57 59 62 66 69 71 72 73
116 117 119 120 121 122 122 122 120 118 116 114 112 108 105 102 98 95 92 89 87 85 83 81 78 76 74 71 69 67 66 66 65 64 63 61 60 59 57 55 53 51 47 44 43 42 41 39 37 35 33 31 32 31 29 27 27 28 29 29 30 31 31 31 31 32 33 33 35 37 40 41 42 43 45 48 51 54 56 58 61 64 67 69 71
118 119 119 120 120 121 122 122 119 117 114 111 108 104 101 98 94 91 88 86 83 81 79 77 75 73 71 69 67 65 65 64 64 63 62 60 59 58 56 55 53 51 48 45 43 42 41 40 38 36 34 31 31 31 31 29 27 26 27 28 29 30 31 31 32 31 32 32 33 35 37 40 41 42 43 45 47 50 53 56 57 60 63 66 69
120 120 120 119 120 121 122 121 119 115 111 108 104 100 98 94 91 88 85 83 80 78 76 74 73 71 69 67 66 65 64 63 62 62 60 59 59 57 55 54 53 52 49 46 43 42 41 40 39 37 35 33 31 30 30 30 28 26 25 26 27 28 29 30 31 31 31 32 32 33 35 37 39 41 42 43 44 46 50 53 54 56 59 63 66
122 122 121 120 119 120 120 119 116 112 108 104 100 97 94 91 88 85 82 80 78 75 74 72 70 68 67 66 65 64 63 62 61 60 59 58 58 57 55 53 53 52 50 47 44 42 41 40 39 38 36 34 32 31 30 30 29 28 26 25 25 27 27 28 29 31 31 31 32 32 33 35 37 39 40 41 42 44 46 49 51 54 57 59 62
126 125 123 120 119 118 117 115 113 109 104 100 96 93 92 89 86 83 80 78 75 73 71 69 68 66 65 64 64 63 63 62 60 59 58 57 57 56 55 53 52 52 51 49 46 43 41 40 39 38 36 34 33 32 31 30 30 28 26 25 24 25 26 27 28 29 30 31 31 31 32 33 34 36 38 40 41 42 44 46 48 51 54 56 59
129 127 123 120 118 116 114 112 109 105 101 97 93 91 89 87 84 81 78 76 73 71 69 67 65 64 63 62 62 62 62 61 60 58 56 55 55 55 54 53 52 51 51 49 47 45 42 41 40 39 37 34 32 31 30 30 30 29 27 25 24 24 25 26 26 27 29 30 30 30 31 32 33 34 36 37 39 41 42 44 46 49 51 53 56
129 127 124 120 117 114 111 108 105 101 98 95 92 90 88 85 82 79 76 74 71 69 67 65 63 62 61 61 61 61 61 60 59 57 55 53 54 54 53 52 51 51 51 49 48 46 44 42 40 39 38 36 33 31 29 29 29 29 28 27 24 23 24 24 25 26 27 28 29 29 30 30 32 33 34 35 37 39 40 42 44 47 49 51 53
129 126 123 120 116 112 108 105 103 99 96 94 91 88 86 84 81 77 74 72 69 67 65 63 62 61 60 60 60 60 60 59 58 57 54 52 51 52 52 51 51 50 50 49 48 46 45 43 41 39 38 36 35 33 31 29 28 27 27 27 25 24 23 23 24 25 25 26 27 28 29 29 30 32 33 34 35 36 38 40 42 45 47 49 50
128 125 122 118 113 109 106 103 101 98 95 93 90 87 84 82 79 75 72 69 67 65 64 62 61 60 59 59 59 59 59 58 57 56 54 51 50 50 51 50 50 50 49 49 48 47 45 44 42 40 39 37 35 33 32 31 29 28 27 26 25 24 24 23 23 24 24 25 25 26 27 28 29 30 31 33 34 35 36 37 40 42 45 47 49
126 123 119 114 110 106 104 102 100 97 94 91 88 85 82 80 76 73 70 67 65 63 62 61 59 59 58 58 57 57 57 57 56 56 54 52 50 49 49 49 49 49 49 48 48 47 45 44 43 41 40 38 35 33 32 31 30 29 27 26 26 25 24 23 23 24 24 24 24 25 26 27 28 28 30 31 33 34 35 36 37 39 42 44 46
123 119 115 111 108 105 102 101 98 95 92 89 86 83 80 77 74 71 68 65 63 62 61 60 59 58 57 57 56 56 55 55 54 54 54 52 50 49 48 47 47 48 48 48 47 47 45 44 43 42 41 39 37 35 32 31 30 29 28 27 26 25 24 23 22 23 24 24 24 24 24 25 26 27 28 29 31 33 34 36 37 38 39 42 44
120 116 113 110 107 104 102 99 97 93 90 87 84 80 77 74 72 69 66 63 61 60 60 59 58 57 56 55 55 54 53 52 51 51 52 52 50 49 48 46 46 46 47 47 47 46 45 44 44 43 41 40 38 36 34 32 30 29 28 27 27 26 25 24 22 22 23 23 24 24 24 25 25 25 26 28 29 31 32 34 36 37 38 40 42
118 115 111 108 106 103 101 98 95 91 87 84 81 77 74 72 71 68 65 62 60 59 58 58 57 56 55 54 53 53 52 50 49 49 50 50 50 49 48 47 45 45 45 45 46 46 45 44 43 43 42 41 39 37 35 33 31 30 28 27 27 26 26 25 23 22 22 23 23 23 24 24 25 25 25 25 27 30 31 33 34 35 37 39 41
115 112 109 106 104 101 98 95 92 89 85 81 78 74 72 71 70 67 64 61 59 57 57 57 56 55 54 53 52 51 50 48 47 47 48 48 49 49 49 48 46 45 44 44 44 45 45 45 43 42 42 41 40 38 36 34 32 30 29 28 27 26 26 25 25 23 23 23 23 23 23 24 25 25 25 25 25 27 29 31 33 34 35 37 39
Wind_Direction
333 335 336 338 340 341 343 344 345 346 346 348 349 349 350 349 349 349 348 345 342 339 334 329 322 313 302 294 287 281 277 274 271 267 263 260 259 256 253 250 248 245 243 242 242 241 241 240 240 239 238 236 236 236 235 234 233 232 231 231 231 232 234 235 236 236 236 237 237 237 238 238 238 239 239 239 238 238 239 239 239 238 237 237 237
334 335 336 338 340 342 344 345 346 346 347 348 349 350 350 350 350 350 349 347 344 340 336 331 325 318 310 300 293 287 281 276 273 270 267 264 260 258 255 251 249 247 245 243 242 241 240 240 240 240 239 237 236 235 235 235 234 233 232 231 231 231 232 233 235 235 236 236 236 237 237 237 238 238 239 239 239 238 238 239 239 239 238 238 237
334 335 336 338 341 343 344 345 345 346 347 348 349 350 350 351 351 351 350 350 347 342 338 334 329 323 316 308 300 293 287 281 276 273 270 267 262 259 257 254 250 248 246 244 242 241 240 239 239 238 238 238 237 236 234 234 234 234 233 232 231 231 231 231 233 234 235 236 236 236 237 237 237 238 238 239 239 239 238 238 239 239 239 238 238
334 335 336 339 341 343 344 345 345 346 347 348 349 350 350 351 352 351 351 351 349 345 340 336 333 328 322 315 308 301 294 287 281 277 273 269 265 261 258 256 253 250 247 245 243 241 240 239 239 238 238 237 237 237 236 234 233 233 233 233 232 231 231 231 231 232 234 235 235 236 236 236 237 237 238 239 239 239 239 238 239 239 239 239 238
333 335 337 340 342 343 344 344 345 346 348 349 349 350 350 351 352 352 352 352 352 347 342 339 337 333 327 320 313 307 302 295 287 281 276 272 268 264 260 257 255 252 249 246 244 242 241 239 239 238 238 238 237 237 236 235 234 233 233 233 233 232 231 231 231 231 232 233 235 235 236 236 236 237 237 238 239 239 239 239 239 239 239 239 239
333 335 338 341 342 343 343 344 345 346 348 349 349 349 350 351 352 352 352 353 353 350 346 343 341 337 332 325 318 312 307 301 294 287 280 275 270 266 263 259 256 254 251 247 244 242 242 240 239 238 238 238 238 237 236 235 235 233 232 232 232 232 232 232 231 231 230 231 233 234 235 236 236 236 236 237 238 238 239 239 239 239 239 239 239
333 336 339 341 342 342 342 344 345 347 348 349 350 350 350 351 352 353 353 354 354 354 351 347 342 339 336 331 324 317 311 306 301 294 286 279 274 269 266 262 258 255 253 250 245 242 241 241 240 239 238 238 238 237 236 235 235 234 233 232 232 232 232 232 232 232 231 230 231 233 234 235 236 236 236 236 237 238 238 239 239 239 239 239 239
334 337 340 341 341 341 342 344 346 347 348 349 350 350 350 351 353 353 354 354 355 356 355 350 345 341 339 336 330 323 317 311 305 300 294 287 279 273 269 265 261 257 254 252 249 245 242 240 240 239 239 238 238 237 237 236 235 234 233 233 232 231 232 232 232 232 232 231 230 231 232 234 235 236 236 236 236 237 237 238 239 239 239 239 239
335 338 340 341 340 340 342 344 346 348 349 349 350 350 351 352 353 354 354 355 356 357 357 354 349 344 341 339 335 329 322 316 311 306 301 294 287 280 274 268 264 261 257 254 252 248 245 242 240 239 239 238 238 237 237 237 236 235 234 233 232 232 231 231 232 232 232 232 231 231 231 232 234 235 235 236 236 237 237 238 238 239 239 239 239
337 339 340 340 339 340 342 344 346 348 349 349 350 351 351 352 353 354 355 355 356 357 357 356 353 348 344 341 338 333 327 321 317 312 307 300 294 287 281 274 268 264 260 256 254 251 249 245 242 240 239 239 238 238 237 237 236 236 235 234 233 232 232 231 231 232 233 232 232 231 231 231 232 234 235 235 236 236 237 237 238 238 239 239 239
337 339 339 339 339 340 342 345 347 348 349 349 350 351 352 352 353 354 355 355 356 357 357 357 356 352 347 343 341 337 331 326 321 318 312 306 299 292 286 280 274 268 263 259 255 253 251 249 246 243 241 240 239 238 238 238 237 236 236 235 234 233 232 232 231 232 232 232 232 232 232 232 232 233 234 235 235 235 236 236 237 238 238 239 239
338 338 338 338 338 340 343 346 347 347 348 349 350 352 352 353 353 354 355 355 356 356 357 357 357 355 351 347 343 340 336 330 325 322 317 312 305 298 291 284 278 272 267 262 257 254 251 250 249 247 244 242 240 239 238 238 238 237 236 235 235 234 233 232 232 232 232 232 232 232 232 232 232 232 233 234 235 235 235 236 236 237 238 238 239
338 338 337 337 338 340 344 346 347 347 348 350 351 352 353 353 354 354 354 355 356 356 356 357 357 356 354 351 346 343 339 335 329 324 321 316 311 304 296 289 282 276 271 266 261 257 253 250 249 248 248 245 243 240 239 238 238 238 238 237 235 235 234 233 233 232 232 232 233 232 232 232 232 232 233 233 234 235 235 235 236 236 236 237 238
338 337 336 337 339 341 344 346 347 347 348 350 351 352 353 353 354 354 354 355 355 356 356 356 356 356 355 353 350 345 342 339 334 328 323 319 315 309 303 295 287 280 273 268 265 261 256 253 250 248 248 248 246 243 241 239 238 238 238 238 237 236 235 234 233 233 233 233 233 233 233 232 232 232 233 233 234 234 235 235 235 236 236 236 237
337 336 336 338 340 342 345 346 347 348 349 350 351 352 352 353 353 354 354 354 355 355 355 355 356 356 356 355 352 348 344 341 339 333 326 321 317 313 308 302 294 286 278 271 267 264 260 257 253 250 248 248 248 247 244 241 239 238 237 237 237 237 236 235 234 233 233 233 233 233 233 233 232 232 232 233 233 234 234 235 235 236 236 236 236
336 336 337 339 341 343 345 346 347 348 349 350 351 352 352 352 353 353 354 354 354 355 355 355 355 356 356 355 354 351 346 343 341 338 332 326 320 316 312 308 301 294 286 277 271 266 263 260 257 254 250 248 247 248 247 245 243 240 238 237 237 237 237 236 235 234 234 233 233 233 233 233 233 232 232 232 233 233 234 235 235 236 236 236 236
336 337 338 340 342 344 345 346 347 348 349 350 350 351 351 352 353 353 353 354 354 354 355 355 354 355 355 355 354 353 349 345 342 340 337 331 325 320 315 311 307 301 293 286 278 271 266 262 259 257 254 251 249 247 247 247 246 244 241 239 238 237 237 237 236 235 234 234 233 233 233 233 233 233 233 233 233 233 234 234 235 236 236 237 237
336 338 339 341 343 345 345 346 347 348 349 350 350 350 351 351 352 353 353 353 353 353 354 354 354 354 354 355 354 353 351 347 344 341 339 336 330 324 319 315 311 306 300 293 286 277 270 265 261 259 257 254 251 249 247 246 246 246 244 242 240 238 237 237 237 236 235 235 234 234 233 233 233 234 234 233 233 233 234 234 234 235 236 237 237
337 338 340 342 344 345 345 346 347 347 348 349 350 350 350 351 351 352 352 352 353 353 353 353 353 353 353 353 354 353 352 350 346 343 341 339 334 329 323 318 314 310 306 300 293 286 277 270 265 261 259 256 253 251 249 247 246 245 245 244 242 240 238 237 237 237 236 236 235 235 234 234 234 234 235 234 234 234 234 234 235 235 235 236 237
338 339 341 343 344 345 346 346 346 347 347 348 349 350 350 350 351 351 352 352 352 352 352 352 353 352 352 352 353 353 352 351 348 345 342 340 337 333 328 322 317 313 310 305 299 293 286 278 271 265 262 259 256 252 250 249 247 245 244 244 244 242 240 238 237 236 237 237 236 236 235 234 234 234 235 235 235 235 234 235 235 235 235 236 236
339 340 342 343 344 345 345 346 346 346 347 347 348 349 349 350 350 350 351 351 351 351 351 351 352 352 351 350 351 352 352 351 350 347 344 341 339 336 331 326 321 316 313 309 304 298 293 287 280 272 266 262 258 255 252 250 249 248 246 244 244 243 242 241 239 237 237 237 237 237 236 235 234 234 235 235 235 235 235 235 235 235 236 236 236
340 341 342 343 344 345 345 345 345 346 346 346 347 348 349 349 349 350 350 350 350 350 350 350 351 351 350 349 350 351 351 351 350 349 346 342 341 338 334 330 326 320 316 312 308 302 296 292 287 280 273 267 262 257 254 252 251 249 248 246 244 244 243 242 241 239 238 237 237 237 237 236 235 234 235 235 235 235 235 235 235 235 235 235 236
341 341 342 343 344 344 344 345 345 345 346 346 346 347 348 348 349 349 349 349 349 349 349 349 350 350 349 348 348 349 350 350 350 349 347 344 341 340 338 334 329 324 319 315 311 307 300 295 290 286 279 272 267 262 258 254 252 250 249 248 246 245 244 243 243 241 240 238 238 237 237 237 236 235 235 235 235 235 235 235 235 235 235 235 235
341 341 342 342 343 343 344 344 344 344 345 345 346 346 347 347 348 348 348 348 348 349 348 348 348 349 349 347 347 348 349 349 349 349 348 346 343 341 339 337 333 328 323 318 313 310 305 299 294 290 285 278 271 266 262 258 255 252 250 249 248 246 245 244 243 243 242 240 239 238 238 238 237 236 236 235 235 236 236 235 235 235 235 235 235
341 341 341 342 342 343 343 343 344 344 344 345 345 345 346 346 347 347 347 347 347 347 347 347 347 347 348 347 346 346 348 348 349 348 348 347 345 343 341 339 336 332 327 321 316 312 308 304 298 293 289 284 277 269 264 261 259 255 252 251 249 248 246 245 244 244 243 243 241 240 239 239 238 237 237 236 236 236 236 236 236 236 236 235 235
341 341 341 341 341 342 342 342 343 343 343 344 344 344 345 345 345 346 346 346 346 346 346 346 346 346 347 346 345 345 346 347 347 347 347 347 346 344 342 340 338 335 330 325 320 315 312 308 303 297 292 288 283 277 268 262 260 259 256 253 251 249 248 247 246 245 244 243 243 242 241 240 239 238 237 237 236 236 236 236 237 237 236 236 236
340 340 340 340 341 341 341 342 342 342 343 343 343 343 343 344 344 344 344 345 345 345 345 345 345 345 346 346 344 343 344 346 346 346 347 347 347 345 344 342 340 337 333 328 323 319 315 312 307 302 296 292 287 282 276 269 262 260 259 256 254 252 250 248 247 247 245 244 243 243 242 241 239 239 238 237 237 236 236 236 236 237 237 237 236
339 340 340 340 340 340 340 341 341 341 342 342 342 342 342 342 343 343 343 343 343 343 344 344 344 344 344 345 344 343 343 344 345 345 346 346 347 346 345 343 341 339 336 332 327 322 317 314 311 307 301 296 291 286 281 276 270 263 260 259 257 254 252 251 249 248 247 246 244 243 243 242 241 240 239 238 237 237 236 236 236 236 237 237 237
339 339 339 339 339 339 340 340 340 340 341 341 341 341 341 341 341 341 341 342 342 342 342 342 342 342 343 344 343 342 342 343 344 344 344 345 346 347 346 344 343 341 338 335 330 325 320 316 313 311 306 301 296 291 285 280 276 270 264 261 259 257 255 253 251 250 248 247 246 244 242 242 242 241 240 240 239 238 237 236 236 236 236 236 237
338 338 338 338 338 338 339 339 339 339 339 340 339 339 339 339 339 340 340 340 341 341 341 341 341 341 341 342 342 342 341 342 343 343 343 344 345 346 346 345 344 342 340 337 333 328 323 318 315 313 310 306 301 296 291 284 279 275 270 264 261 260 258 255 254 252 250 248 247 245 244 242 241 241 241 240 240 239 239 238 237 236 236 236 235
337 337 337 337 337 337 337 338 338 338 338 338 338 338 338 338 338 338 339 339 339 340 340 340 340 340 340 341 341 341 340 341 342 342 342 342 343 345 346 346 345 344 341 338 335 331 327 322 318 314 312 309 305 300 295 290 284 278 274 269 264 261 260 259 256 254 252 250 248 247 246 244 242 241 241 240 240 239 239 239 239 238 237 236 235
336 336 335 336 336 336 336 336 336 336 336 337 337 337 337 337 337 337 337 338 338 338 338 339 339 338 339 340 340 340 340 340 341 342 341 341 342 343 344 345 346 345 343 340 337 334 330 326 321 317 314 311 308 304 299 294 289 283 278 274 269 265 262 261 259 256 254 252 251 249 247 246 244 243 242 241 240 239 239 239 239 239 238 237 236
335 335 334 334 334 335 335 335 335 335 335 335 335 335 335 335 335 336 336 336 337 337 337 337 337 337 337 338 339 339 339 339 340 341 341 340 341 342 343 344 345 346 345 342 339 336 333 329 325 320 316 313 311 307 302 297 292 288 282 277 273 269 264 262 261 259 256 253 252 251 249 248 246 244 243 242 241 240 239 239 238 239 239 238 238
334 334 333 333 333 333 333 333 334 334 334 334 334 334 334 334 334 335 335 335 336 336 336 336 336 336 336 337 338 338 338 338 339 340 340 339 340 341 342 343 344 345 346 344 341 338 335 331 328 324 319 316 313 310 306 300 295 290 286 282 277 273 269 264 262 261 260 257 254 252 251 250 248 246 244 243 242 241 240 239 239 238 238 238 238
333 333 332 331 331 331 331 332 332 333 333 333 333 333 333 333 333 333 334 334 334 334 335 335 335 335 335 336 336 337 337 337 338 339 339 339 339 340 341 342 343 344 345 345 342 340 337 333 330 327 322 318 315 312 309 304 298 292 288 285 280 276 272 268 264 262 261 260 258 255 252 251 250 248 246 244 243 242 241 240 239 238 238 237 237
332 332 331 330 330 330 330 331 331 332 332 332 332 332 332 332 332 333 333 333 333 333 333 334 334 334 334 334 335 336 336 336 337 338 338 338 338 339 339 341 342 342 344 345 344 341 339 336 332 330 326 321 317 314 311 307 302 295 290 286 283 279 274 270 267 264 262 261 260 258 255 252 251 250 248 246 244 243 242 241 239 239 238 238 237
331 330 329 329 329 329 329 330 331 331 331 331 331 331 331 331 331 332 332 332 332 332 332 332 333 333 333 333 334 334 335 335 336 336 337 337 337 338 338 340 341 341 342 344 344 342 340 337 334 331 329 325 320 316 313 310 306 300 293 288 285 282 278 273 270 267 264 262 261 261 259 256 253 251 250 248 246 244 243 242 241 239 239 238 238
330 329 329 329 329 329 329 329 330 330 330 330 330 330 330 330 330 331 332 332 331 331 331 331 331 331 331 332 332 333 334 334 335 335 336 336 336 337 337 338 339 340 341 343 344 343 340 338 335 333 330 328 323 318 315 312 309 304 298 291 286 284 282 278 273 269 266 263 262 261 260 259 256 253 251 249 248 246 244 243 242 241 240 239 238
330 329 329 329 329 329 329 329 329 329 329 329 329 329 329 329 329 330 331 331 331 330 330 330 330 330 330 330 331 332 333 333 334 334 335 335 335 336 336 337 338 338 339 341 343 343 342 339 336 334 331 329 326 321 317 314 311 307 302 296 289 284 282 281 278 273 269 265 263 261 261 260 259 256 253 251 249 247 245 244 243 242 241 240 239
330 330 330 330 330 329 329 328 328 328 328 328 328 328 328 328 329 330 330 330 330 329 329 329 329 329 329 329 330 331 332 333 333 333 334 333 333 334 335 336 337 337 338 340 342 343 342 340 338 335 332 330 328 324 319 315 312 310 306 300 293 286 282 280 280 277 273 268 265 262 261 260 259 258 256 253 250 248 246 245 244 243 242 241 240
331 330 330 331 331 329 328 327 327 327 327 327 327 327 327 328 328 329 330 329 329 329 329 328 328 328 328 328 328 329 330 331 332 332 333 332 332 333 334 335 336 336 336 338 340 342 342 341 339 337 334 332 330 327 322 317 314 312 310 305 299 292 285 281 280 279 276 272 268 265 262 260 259 258 257 255 253 250 248 246 244 243 242 241 241
331 331 331 331 330 329 328 327 326 326 326 326 327 327 327 327 328 329 329 328 328 328 328 327 327 327 327 327 328 328 329 330 331 331 332 331 331 331 332 334 334 335 335 337 339 341 341 342 341 338 335 334 331 329 325 320 316 313 312 310 305 299 291 284 280 279 277 274 271 268 265 262 260 258 256 255 254 252 249 247 245 243 242 241 240
330 330 330 330 330 329 328 327 326 326 326 326 326 327 326 326 327 327 327 327 326 326 326 326 325 326 326 326 326 327 328 328 329 330 331 331 330 330 331 332 333 334 334 335 337 339 340 341 341 339 336 334 332 330 328 324 319 315 313 311 309 304 297 289 282 279 278 276 273 270 268 266 263 260 257 255 254 253 251 249 247 244 243 241 241
329 329 330 330 329 328 327 327 326 326 326 326 326 326 325 325 325 326 326 325 325 325 325 324 324 325 325 325 326 326 326 327 328 328 329 330 329 329 329 331 332 332 333 334 336 337 339 340 341 340 338 335 333 331 329 326 322 317 313 312 311 308 303 296 288 281 277 276 275 272 270 268 266 264 261 258 255 253 251 250 248 247 245 243 241
329 329 329 329 328 328 327 326 326 325 325 325 325 325 325 324 324 325 324 324 324 324 323 323 323 323 324 324 325 325 325 326 326 327 328 328 328 327 328 329 330 331 331 333 334 336 337 338 339 340 339 337 334 332 330 328 325 320 315 312 311 309 306 302 295 287 279 276 275 274 272 270 267 266 264 262 258 255 252 250 248 247 246 245 243
329 329 329 328 328 327 327 326 325 325 325 325 325 324 324 323 323 323 323 322 323 322 322 322 322 322 322 323 324 324 324 325 325 325 326 327 327 327 327 328 329 329 330 331 333 334 336 337 338 338 339 338 336 334 332 330 328 324 319 314 311 309 308 306 302 295 286 279 276 275 274 272 269 267 265 264 262 259 255 252 249 248 247 246 245
328 328 328 327 327 327 326 325 325 325 325 325 324 324 323 323 322 322 321 321 322 321 320 320 321 321 321 322 322 323 323 324 324 324 324 325 326 326 326 327 327 328 329 330 331 333 334 335 336 337 338 337 337 335 333 331 329 327 323 318 313 310 309 308 305 300 294 286 279 275 274 273 271 269 267 265 263 262 260 256 252 249 247 247 246
328 328 327 327 327 326 326 325 324 325 325 325 324 324 323 322 321 320 320 321 321 320 319 319 319 319 320 320 321 322 322 323 323 323 323 324 324 324 325 325 326 326 327 329 330 332 333 334 335 336 336 337 337 336 335 332 330 328 326 322 317 312 310 309 307 304 299 293 286 279 275 273 271 270 268 267 265 263 262 260 257 252 249 247 246
328 327 327 327 326 326 325 325 325 325 325 325 324 324 323 321 319 319 319 320 319 319 318 317 318 318 318 319 320 320 321 322 322 322 322 322 323 323 323 324 325 326 326 327 329 330 331 333 334 334 335 336 336 336 336 334 331 328 327 325 321 316 311 309 307 305 302 298 292 286 279 275 271 269 268 268 267 265 263 262 260 258 254 250 247
328 327 326 326 326 325 325 325 325 325 325 325 324 323 322 320 318 318 319 319 319 318 317 316 316 317 318 318 319 319 320 321 321 321 321 321 321 321 321 322 324 324 325 326 327 328 330 331 332 333 333 334 334 335 335 335 334 331 328 326 324 320 315 310 308 306 304 301 297 291 285 279 274 271 268 266 267 267 265 263 261 260 258 256 252
327 326 326 326 325 325 325 325 325 325 325 324 324 323 321 319 318 319 320 319 318 317 316 315 316 316 317 317 318 318 319 319 320 320 320 320 320 320 320 321 322 323 324 325 326 327 328 329 331 332 332 332 333 333 334 335 335 333 330 328 326 323 319 314 310 307 305 303 299 295 290 284 279 275 271 268 266 265 265 264 262 260 259 258 257
Height
10465 10456 10447 10439 10431 10421 10410 10399 10388 10377 10365 10354 10343 10332 10320 10308 10296 10284 10273 10262 10252 10243 10235 10228 10222 10216 10210 10205 10201 10199 10196 10192 10190 10188 10187 10187 10188 10189 10192 10195 10197 10201 10204 10207 10212 10218 10223 10228 10233 10240 10247 10255 10264 10272 10279 10287 10294 10302 10309 10316 10325 10335 10342 10348 10355 10365 10374 10381 10389 10397 10404 10411 10417 10423 10431 10438 10448 10457 10465 10473 10481 10490 10496 10502 10509
10459 10450 10442 10434 10425 10414 10403 10392 10382 10372 10360 10349 10339 10328 10317 10305 10293 10282 10270 10258 10247 10238 10230 10222 10215 10209 10203 10197 10193 10190 10187 10184 10180 10177 10176 10178 10177 10176 10178 10181 10183 10186 10190 10194 10199 10205 10209 10213 10217 10223 10230 10236 10242 10250 10257 10266 10275 10284 10292 10299 10307 10315 10324 10331 10338 10347 10356 10363 10373 10381 10386 10392 10399 10406 10412 10418 10428 10440 10448 10455 10462 10471 10478 10485 10494
10453 10445 10437 10429 10419 10408 10397 10386 10376 10366 10355 10344 10334 10323 10312 10301 10289 10277 10265 10253 10242 10232 10224 10217 10210 10202 10196 10190 10185 10181 10178 10175 10172 10168 10166 10167 10166 10165 10165 10168 10171 10174 10177 10182 10186 10191 10195 10198 10200 10205 10212 10219 10225 10231 10239 10247 10257 10266 10275 10283 10291 10298 10306 10313 10320 10329 10337 10345 10355 10362 10367 10374 10383 10390 10394 10399 10409 10422 10431 10437 10444 10452 10459 10466 10477
10448 10440 10433 10424 10413 10402 10391 10381 10370 10360 10351 10340 10329 10318 10307 10296 10284 10273 10262 10250 10238 10228 10220 10212 10204 10197 10190 10184 10178 10173 10169 10167 10164 10160 10157 10157 10156 10156 10156 10157 10160 10162 10165 10169 10173 10177 10181 10183 10187 10191 10196 10201 10207 10214 10222 10231 10240 10249 10257 10266 10274 10282 10288 10295 10303 10312 10320 10327 10335 10342 10348 10357 10365 10370 10377 10386 10393 10402 10413 10420 10427 10433 10439 10447 10458
10443 10435 10427 10418 10407 10396 10386 10376 10366 10356 10346 10335 10324 10314 10303 10292 10281 10270 10259 10248 10236 10225 10215 10205 10196 10190 10184 10179 10174 10168 10162 10158 10156 10153 10150 10147 10147 10147 10147 10147 10148 10151 10154 10157 10161 10164 10167 10170 10173 10177 10181 10185 10191 10197 10205 10214 10222 10230 10238 10248 10257 10264 10271 10278 10285 10293 10302 10310 10316 10324 10331 10337 10345 10354 10364 10373 10377 10384 10394 10401 10409 10415 10420 10427 10437
10438 10431 10421 10411 10400 10391 10382 10372 10362 10351 10341 10331 10320 10309 10298 10288 10277 10266 10255 10244 10233 10221 10208 10198 10191 10184 10178 10172 10167 10163 10157 10151 10148 10145 10142 10140 10138 10138 10138 10138 10138 10139 10142 10146 10149 10151 10153 10156 10160 10163 10167 10171 10176 10181 10188 10196 10204 10212 10220 10228 10237 10246 10254 10261 10266 10273 10283 10292 10299 10306 10312 10318 10329 10338 10347 10356 10360 10366 10375 10380 10389 10396 10402 10409 10417
10433 10425 10416 10405 10395 10387 10378 10368 10358 10348 10337 10326 10315 10304 10293 10283 10272 10261 10251 10240 10228 10216 10204 10194 10187 10180 10173 10166 10160 10156 10152 10147 10141 10138 10135 10132 10130 10129 10129 10129 10129 10130 10131 10134 10137 10140 10142 10144 10147 10150 10153 10157 10161 10167 10172 10179 10186 10194 10202 10210 10218 10226 10235 10242 10248 10254 10264 10275 10281 10287 10294 10302 10311 10317 10326 10338 10342 10348 10356 10360 10368 10376 10383 10391 10399
10427 10419 10410 10400 10391 10382 10373 10364 10354 10343 10332 10321 10310 10299 10288 10278 10267 10257 10247 10236 10225 10213 10203 10193 10184 10175 10168 10161 10155 10149 10145 10141 10136 10132 10128 10126 10123 10122 10121 10121 10120 10120 10121 10123 10125 10128 10130 10132 10134 10137 10140 10144 10148 10152 10158 10164 10170 10177 10184 10192 10200 10208 10216 10224 10231 10236 10245 10255 10262 10269 10277 10283 10290 10296 10306 10318 10324 10329 10338 10343 10347 10355 10363 10371 10380
10421 10412 10404 10396 10388 10379 10369 10359 10349 10338 10328 10316 10306 10295 10284 10273 10263 10253 10243 10232 10222 10211 10202 10192 10182 10172 10164 10157 10150 10144 10139 10135 10130 10126 10122 10119 10116 10114 10113 10113 10112 10112 10112 10113 10114 10116 10119 10121 10123 10125 10128 10131 10134 10139 10144 10149 10155 10161 10168 10175 10183 10191 10198 10206 10213 10218 10225 10236 10244 10253 10262 10266 10272 10278 10286 10295 10303 10311 10320 10325 10329 10335 10343 10351 10360
10414 10406 10399 10392 10384 10375 10365 10355 10344 10334 10323 10312 10301 10290 10279 10269 10259 10248 10239 10228 10219 10209 10200 10191 10181 10171 10161 10153 10146 10140 10134 10129 10125 10120 10117 10113 10110 10108 10106 10104 10104 10104 10103 10104 10104 10106 10108 10110 10112 10114 10117 10119 10122 10126 10130 10135 10140 10146 10152 10159 10166 10173 10181 10188 10195 10200 10206 10216 10226 10236 10245 10250 10254 10260 10266 10273 10281 10291 10300 10306 10311 10317 10324 10332 10340
10409 10402 10394 10387 10379 10370 10361 10350 10339 10329 10319 10308 10297 10286 10275 10265 10254 10244 10235 10225 10215 10205 10197 10188 10179 10169 10160 10151 10144 10136 10130 10124 10119 10115 10111 10108 10104 10102 10099 10097 10096 10096 10095 10095 10095 10096 10097 10099 10101 10103 10105 10108 10111 10114 10118 10122 10126 10131 10137 10144 10150 10157 10163 10170 10177 10183 10188 10196 10206 10217 10227 10234 10238 10243 10249 10254 10260 10270 10280 10286 10292 10299 10307 10315 10322
10405 10398 10390 10382 10374 10365 10355 10345 10334 10324 10314 10303 10292 10282 10271 10261 10250 10240 10231 10221 10211 10201 10193 10184 10176 10167 10158 10150 10142 10134 10127 10120 10114 10110 10106 10102 10099 10096 10093 10091 10089 10087 10087 10086 10086 10086 10087 10088 10089 10091 10094 10096 10099 10102 10106 10109 10113 10117 10122 10128 10134 10141 10147 10154 10160 10166 10171 10177 10186 10196 10207 10215 10221 10228 10232 10236 10241 10249 10258 10266 10272 10279 10290 10298 10303
10401 10394 10386 10377 10368 10359 10349 10339 10329 10319 10309 10299 10288 10278 10268 10258 10247 10237 10227 10217 10207 10198 10189 10180 10172 10164 10155 10147 10139 10131 10124 10117 10110 10105 10101 10097 10093 10090 10088 10085 10082 10080 10079 10078 10077 10077 10077 10078 10079 10080 10082 10085 10088 10091 10094 10098 10101 10104 10109 10114 10119 10125 10131 10138 10144 10151 10157 10163 10169 10177 10186 10196 10204 10211 10215 10218 10223 10230 10237 10245 10252 10258 10268 10280 10284
10398 10390 10381 10373 10363 10354 10344 10334 10325 10314 10304 10294 10284 10274 10264 10254 10244 10234 10224 10214 10204 10195 10185 10177 10168 10160 10151 10143 10135 10128 10121 10114 10107 10101 10096 10092 10088 10084 10081 10079 10077 10074 10072 10070 10069 10068 10069 10069 10070 10071 10072 10073 10076 10080 10083 10086 10089 10092 10096 10100 10105 10110 10116 10122 10129 10135 10141 10147 10153 10158 10166 10176 10184 10191 10196 10200 10206 10212 10218 10226 10234 10237 10245 10260 10266
10394 10386 10377 10367 10358 10348 10339 10330 10321 10310 10299 10288 10279 10269 10260 10250 10241 10230 10220 10211 10201 10192 10182 10173 10164 10156 10147 10139 10131 10124 10117 10110 10104 10098 10092 10087 10083 10079 10075 10073 10070 10068 10065 10063 10061 10060 10060 10060 10061 10062 10063 10064 10065 10067 10071 10074 10077 10080 10083 10086 10090 10095 10101 10107 10113 10119 10125 10130 10135 10140 10147 10155 10163 10170 10175 10181 10187 10194 10201 10207 10214 10218 10225 10238 10247
10390 10381 10372 10362 10352 10342 10333 10325 10316 10306 10294 10283 10273 10264 10255 10246 10236 10227 10217 10207 10197 10188 10178 10169 10160 10151 10143 10135 10128 10121 10113 10106 10099 10093 10088 10082 10078 10074 10070 10066 10064 10061 10058 10057 10055 10053 10052 10052 10052 10052 10053 10055 10056 10057 10059 10062 10065 10069 10071 10074 10077 10081 10086 10092 10098 10104 10108 10113 10118 10123 10129 10135 10143 10148 10154 10163 10170 10176 10184 10190 10196 10201 10208 10217 10226
10384 10376 10367 10357 10347 10337 10328 10318 10310 10301 10291 10280 10270 10260 10251 10241 10232 10222 10213 10203 10193 10184 10174 10165 10156 10148 10140 10132 10125 10117 10110 10102 10095 10089 10084 10078 10073 10068 10064 10061 10057 10054 10051 10049 10048 10046 10044 10044 10044 10044 10044 10045 10046 10048 10048 10050 10053 10056 10060 10063 10066 10069 10073 10077 10082 10088 10092 10097 10101 10105 10111 10118 10124 10129 10136 10145 10153 10159 10167 10174 10180 10186 10193 10199 10206
10378 10370 10361 10352 10343 10333 10323 10313 10303 10294 10286 10277 10267 10257 10247 10238 10229 10219 10209 10200 10190 10181 10171 10162 10153 10144 10137 10129 10122 10114 10107 10099 10092 10085 10079 10074 10068 10063 10059 10055 10051 10048 10045 10042 10040 10039 10037 10036 10036 10035 10035 10036 10037 10037 10038 10039 10041 10043 10047 10050 10054 10057 10061 10064 10068 10072 10076 10081 10085 10089 10096 10104 10109 10114 10121 10130 10137 10143 10151 10158 10164 10171 10178 10184 10190
10373 10365 10357 10348 10338 10328 10319 10308 10297 10288 10280 10273 10264 10254 10244 10234 10224 10215 10206 10196 10186 10177 10168 10159 10150 10141 10133 10126 10118 10111 10104 10096 10089 10081 10075 10069 10064 10059 10054 10049 10045 10042 10039 10036 10033 10031 10030 10029 10028 10027 10027 10027 10027 10028 10028 10029 10030 10032 10034 10037 10040 10044 10047 10051 10054 10057 10061 10065 10070 10074 10082 10091 10096 10100 10107 10114 10121 10128 10135 10143 10149 10155 10161 10169 10177
10368 10360 10351 10342 10333 10323 10314 10304 10294 10284 10275 10268 10260 10252 10242 10231 10220 10211 10203 10193 10184 10175 10166 10157 10147 10138 10129 10122 10115 10108 10101 10093 10086 10078 10071 10065 10059 10054 10049 10044 10040 10036 10033 10030 10027 10024 10022 10021 10020 10020 10019 10018 10018 10018 10018 10019 10019 10021 10023 10025 10027 10030 10033 10037 10040 10044 10047 10050 10055 10060 10067 10077 10082 10085 10090 10096 10103 10110 10118 10126 10132 10139 10145 10154 10163
10363 10355 10346 10336 10327 10318 10309 10300 10291 10282 10272 10263 10255 10247 10238 10228 10218 10208 10199 10190 10181 10172 10163 10154 10144 10135 10126 10118 10111 10105 10098 10091 10083 10075 10068 10061 10055 10049 10044 10039 10035 10030 10027 10024 10022 10018 10015 10013 10012 10012 10011 10010 10010 10010 10009 10009 10009 10011 10012 10014 10016 10017 10020 10023 10027 10031 10034 10037 10041 10046 10052 10059 10065 10069 10072 10077 10084 10092 10099 10107 10114 10121 10129 10138 10146
10357 10348 10339 10331 10322 10313 10304 10295 10287 10279 10270 10260 10250 10242 10233 10224 10215 10205 10196 10186 10177 10168 10159 10150 10141 10131 10123 10114 10107 10101 10095 10087 10080 10073 10065 10057 10051 10045 10039 10034 10029 10025 10021 10017 10015 10013 10010 10007 10004 10004 10003 10002 10002 10001 10001 10000 10000 10000 10002 10003 10005 10006 10008 10010 10014 10018 10022 10025 10028 10031 10036 10042 10047 10052 10056 10061 10068 10074 10081 10089 10097 10104 10111 10120 10128
10351 10342 10333 10325 10316 10308 10300 10291 10282 10273 10265 10256 10247 10237 10228 10219 10210 10201 10192 10183 10173 10164 10155 10146 10138 10129 10120 10111 10103 10097 10090 10083 10076 10069 10062 10054 10047 10041 10035 10029 10024 10020 10016 10012 10008 10006 10004 10001 9998 9996 9995 9995 9994 9993 9992 9992 9991 9991 9992 9993 9994 9996 9997 9999 10001 10004 10009 10012 10015 10018 10021 10025 10031 10037 10042 10047 10052 10058 10063 10071 10078 10085 10092 10101 10108
10345 10335 10327 10318 10310 10302 10295 10286 10278 10268 10259 10250 10241 10232 10223 10214 10205 10196 10187 10178 10169 10161 10152 10143 10135 10126 10117 10108 10099 10092 10085 10078 10072 10065 10059 10052 10044 10037 10031 10025 10020 10015 10010 10006 10003 10000 9997 9995 9992 9990 9988 9987 9986 9985 9984 9983 9983 9982 9982 9983 9984 9985 9987 9989 9990 9993 9996 9999 10002 10005 10008 10013 10019 10024 10029 10033 10038 10043 10048 10054 10061 10067 10074 10082 10089
10339 10330 10321 10313 10305 10297 10289 10281 10273 10263 10254 10244 10234 10226 10217 10209 10200 10191 10182 10173 10165 10157 10149 10140 10131 10122 10113 10104 10094 10087 10080 10074 10068 10061 10055 10048 10041 10034 10027 10021 10016 10010 10006 10001 9997 9994 9991 9988 9986 9984 9981 9979 9978 9978 9977 9975 9974 9974 9974 9974 9974 9975 9977 9979 9981 9982 9985 9988 9991 9994 9997 10002 10007 10012 10016 10019 10024 10029 10034 10040 10046 10052 10057 10064 10071
10333 10324 10316 10307 10299 10291 10283 10275 10267 10258 10248 10239 10229 10219 10211 10203 10195 10187 10178 10169 10160 10152 10144 10136 10127 10118 10109 10100 10090 10082 10075 10069 10064 10058 10051 10044 10038 10031 10024 10017 10011 10006 10002 9997 9992 9988 9985 9982 9979 9977 9975 9973 9971 9970 9969 9968 9967 9965 9965 9965 9965 9966 9967 9969 9971 9973 9975 9977 9979 9982 9985 9990 9995 9999 10002 10005 10010 10016 10021 10027 10032 10036 10041 10048 10054
10327 10319 10310 10301 10293 10285 10277 10268 10260 10251 10242 10233 10224 10214 10205 10197 10189 10181 10173 10165 10156 10147 10139 10131 10122 10113 10105 10096 10086 10078 10070 10064 10059 10053 10047 10040 10034 10027 10020 10014 10007 10002 9997 9993 9988 9983 9979 9976 9973 9971 9968 9966 9964 9962 9961 9960 9960 9958 9957 9956 9957 9957 9958 9959 9961 9963 9965 9967 9969 9971 9974 9978 9982 9985 9988 9992 9997 10003 10008 10013 10018 10022 10025 10032 10039
10322 10313 10304 10296 10287 10278 10270 10261 10252 10243 10235 10226 10218 10209 10200 10191 10183 10176 10168 10160 10152 10143 10134 10126 10118 10110 10101 10093 10084 10075 10066 10059 10053 10048 10042 10036 10030 10023 10017 10010 10004 9998 9993 9988 9984 9979 9974 9970 9967 9965 9962 9960 9958 9956 9954 9952 9952 9951 9950 9949 9948 9948 9949 9950 9952 9953 9955 9957 9959 9961 9963 9966 9970 9973 9976 9979 9984 9989 9995 10000 10003 10007 10011 10017 10024
10315 10307 10298 10289 10281 10272 10263 10253 10244 10235 10227 10219 10210 10202 10194 10186 10178 10170 10163 10155 10147 10139 10130 10121 10113 10106 10098 10090 10081 10072 10063 10055 10048 10042 10037 10032 10026 10020 10013 10007 10000 9994 9988 9984 9980 9976 9971 9966 9961 9958 9956 9953 9951 9949 9948 9946 9944 9943 9943 9942 9941 9940 9941 9941 9943 9944 9946 9947 9949 9951 9953 9955 9958 9961 9964 9968 9972 9977 9981 9986 9989 9992 9998 10004 10011
10308 10300 10291 10282 10273 10264 10255 10246 10237 10228 10220 10212 10203 10195 10187 10179 10171 10164 10156 10149 10142 10134 10125 10117 10108 10101 10093 10086 10077 10069 10059 10051 10044 10038 10032 10027 10021 10016 10009 10003 9996 9990 9984 9979 9975 9971 9967 9962 9957 9953 9950 9947 9944 9942 9941 9939 9938 9936 9935 9934 9934 9933 9933 9933 9934 9935 9937 9938 9939 9941 9943 9945 9948 9950 9953 9956 9960 9964 9968 9972 9975 9979 9986 9991 9998
10301 10293 10284 10275 10266 10257 10248 10239 10230 10221 10213 10206 10198 10189 10180 10172 10164 10157 10149 10142 10135 10127 10119 10111 10103 10095 10087 10080 10072 10064 10056 10048 10040 10033 10027 10022 10016 10011 10005 9999 9993 9987 9980 9975 9970 9966 9963 9958 9953 9949 9945 9941 9938 9936 9934 9932 9931 9930 9928 9927 9927 9926 9925 9925 9925 9926 9928 9929 9930 9932 9933 9936 9938 9940 9943 9946 9949 9952 9956 9959 9962 9968 9973 9978 9984
10295 10286 10276 10267 10258 10249 10240 10232 10223 10215 10207 10199 10192 10183 10175 10166 10158 10150 10142 10135 10128 10120 10112 10104 10096 10088 10081 10074 10067 10060 10052 10044 10037 10030 10023 10017 10011 10006 10001 9995 9989 9983 9977 9971 9966 9961 9958 9954 9949 9945 9941 9937 9933 9931 9928 9926 9924 9923 9922 9920 9919 9919 9918 9917 9917 9918 9919 9921 9922 9923 9925 9927 9929 9931 9933 9936 9938 9941 9944 9947 9950 9955 9960 9965 9971
10289 10279 10269 10259 10251 10242 10233 10225 10217 10208 10200 10192 10185 10177 10169 10160 10152 10143 10135 10127 10120 10113 10105 10097 10089 10082 10075 10068 10061 10054 10047 10039 10033 10026 10019 10013 10007 10001 9996 9990 9985 9980 9974 9967 9962 9957 9952 9949 9945 9940 9937 9933 9929 9925 9923 9920 9918 9916 9915 9914 9913 9912 9911 9910 9910 9910 9911 9912 9914 9915 9916 9917 9919 9922 9924 9926 9928 9931 9933 9936 9940 9943 9948 9953 9958
10282 10272 10261 10252 10243 10235 10226 10218 10210 10202 10193 10185 10178 10170 10162 10153 10145 10137 10128 10120 10112 10105 10098 10091 10083 10075 10069 10062 10056 10049 10042 10035 10028 10022 10016 10009 10003 9997 9991 9986 9980 9975 9970 9964 9958 9953 9948 9944 9940 9936 9932 9928 9925 9921 9918 9915 9912 9910 9908 9908 9906 9905 9904 9904 9903 9902 9903 9904 9905 9907 9908 9909 9910 9912 9915 9917 9919 9921 9923 9926 9929 9933 9937 9942 9946
10275 10265 10255 10245 10236 10227 10219 10210 10203 10195 10186 10177 10170 10162 10154 10146 10138 10131 10122 10113 10105 10098 10091 10084 10076 10069 10062 10055 10049 10043 10036 10029 10023 10017 10011 10005 9999 9993 9987 9982 9976 9971 9966 9960 9954 9949 9944 9940 9936 9932 9928 9923 9920 9917 9913 9910 9908 9905 9902 9901 9900 9899 9898 9897 9896 9896 9896 9896 9897 9898 9899 9901 9902 9903 9905 9908 9910 9912 9914 9917 9919 9923 9927 9931 9935
10267 10258 10248 10238 10229 10219 10211 10203 10195 10187 10179 10170 10162 10154 10147 10139 10131 10124 10116 10107 10099 10091 10084 10077 10070 10062 10055 10049 10043 10037 10031 10024 10018 10012 10006 10000 9995 9989 9983 9977 9972 9966 9961 9956 9951 9946 9941 9936 9931 9927 9923 9919 9915 9913 9910 9906 9903 9900 9898 9895 9894 9893 9892 9891 9890 9890 9889 9889 9889 9890 9891 9893 9894 9895 9897 9899 9901 9903 9906 9908 9910 9913 9916 9920 9925
10260 10252 10242 10232 10222 10212 10203 10195 10187 10179 10171 10162 10153 10146 10139 10131 10123 10117 10109 10100 10092 10084 10076 10070 10063 10056 10049 10043 10038 10032 10026 10020 10013 10007 10002 9996 9990 9984 9979 9973 9968 9963 9957 9952 9947 9941 9937 9932 9928 9923 9919 9915 9911 9908 9905 9902 9898 9896 9893 9890 9888 9886 9885 9885 9884 9883 9883 9883 9882 9882 9883 9884 9886 9888 9889 9890 9892 9894 9897 9899 9901 9904 9907 9911 9916
10253 10244 10235 10225 10215 10204 10194 10186 10178 10170 10162 10153 10144 10137 10130 10123 10115 10109 10102 10093 10085 10078 10070 10063 10056 10049 10043 10037 10032 10027 10021 10015 10008 10002 9996 9991 9986 9980 9975 9969 9964 9959 9954 9949 9943 9937 9932 9928 9924 9919 9915 9911 9907 9903 9900 9898 9894 9891 9888 9886 9883 9881 9879 9878 9878 9878 9877 9877 9876 9876 9876 9877 9878 9880 9881 9882 9884 9886 9888 9890 9892 9895 9899 9902 9905
10245 10236 10227 10218 10207 10196 10185 10176 10168 10160 10152 10144 10135 10128 10121 10114 10107 10101 10094 10086 10078 10071 10064 10057 10050 10043 10037 10031 10026 10021 10015 10009 10004 9998 9991 9986 9981 9976 9971 9965 9960 9955 9950 9945 9940 9934 9928 9923 9919 9915 9911 9907 9903 9899 9895 9893 9890 9887 9884 9881 9879 9876 9874 9872 9871 9871 9871 9870 9870 9870 9869 9869 9870 9872 9873 9875 9876 9878 9880 9881 9884 9887 9890 9893 9895
10236 10227 10218 10209 10200 10188 10176 10166 10157 10150 10143 10134 10126 10119 10112 10105 10099 10092 10086 10078 10071 10064 10057 10050 10044 10037 10031 10025 10019 10014 10009 10004 9999 9993 9987 9981 9976 9971 9967 9961 9956 9951 9946 9941 9936 9931 9925 9919 9914 9910 9906 9902 9899 9895 9891 9888 9885 9883 9880 9877 9875 9872 9870 9867 9865 9865 9864 9864 9864 9864 9864 9863 9863 9864 9866 9867 9869 9871 9872 9874 9876 9879 9881 9883 9886
10225 10216 10207 10199 10191 10180 10168 10157 10147 10140 10132 10124 10116 10109 10102 10096 10090 10084 10077 10070 10063 10057 10050 10044 10037 10031 10025 10019 10013 10007 10002 9998 9993 9988 9982 9976 9970 9966 9961 9956 9951 9946 9941 9936 9932 9927 9922 9916 9911 9906 9902 9897 9893 9890 9887 9884 9880 9878 9875 9873 9870 9867 9865 9863 9861 9859 9858 9858 9858 9858 9858 9858 9858 9858 9858 9860 9861 9863 9865 9866 9869 9871 9872 9874 9877
10213 10204 10196 10188 10181 10170 10159 10148 10138 10130 10122 10114 10107 10100 10093 10087 10081 10075 10069 10062 10055 10049 10043 10037 10031 10025 10019 10013 10007 10001 9996 9991 9987 9982 9977 9971 9965 9960 9956 9951 9946 9941 9936 9931 9927 9922 9918 9913 9907 9902 9898 9894 9889 9885 9882 9879 9876 9873 9870 9868 9865 9863 9860 9858 9856 9854 9852 9852 9851 9851 9851 9852 9852 9852 9853 9853 9854 9856 9857 9859 9861 9862 9863 9865 9868
10201 10192 10184 10177 10168 10159 10148 10137 10127 10119 10112 10104 10097 10090 10083 10077 10072 10066 10060 10054 10047 10042 10036 10030 10024 10019 10013 10007 10001 9995 9990 9985 9981 9977 9972 9966 9960 9955 9950 9946 9941 9936 9931 9926 9922 9918 9913 9909 9904 9898 9894 9890 9886 9882 9878 9875 9871 9868 9866 9863 9861 9858 9856 9854 9852 9850 9848 9846 9846 9845 9845 9845 9846 9846 9847 9847 9848 9849 9851 9852 9853 9853 9855 9857 9859
10191 10181 10172 10164 10156 10146 10136 10126 10117 10109 10101 10094 10087 10081 10074 10068 10062 10057 10051 10045 10039 10034 10028 10023 10017 10012 10006 10001 9995 9989 9984 9979 9974 9971 9967 9962 9956 9950 9945 9941 9936 9931 9926 9921 9917 9913 9908 9904 9900 9895 9890 9885 9882 9878 9874 9871 9868 9864 9861 9858 9856 9853 9851 9849 9847 9845 9844 9842 9840 9840 9840 9839 9839 9840 9840 9841 9842 9843 9844 9845 9846 9846 9847 9849 9851
10180 10170 10161 10153 10144 10134 10125 10115 10106 10098 10091 10084 10078 10071 10065 10058 10053 10048 10042 10036 10031 10025 10020 10015 10010 10005 9999 9994 9989 9983 9978 9973 9968 9964 9961 9957 9952 9946 9940 9936 9931 9926 9922 9917 9912 9908 9903 9899 9895 9891 9886 9881 9877 9873 9869 9866 9864 9861 9857 9854 9851 9848 9846 9844 9842 9841 9839 9837 9836 9835 9834 9834 9834 9834 9834 9834 9835 9837 9838 9839 9840 9840 9840 9842 9844
10169 10160 10151 10141 10132 10123 10114 10105 10096 10088 10082 10075 10068 10062 10055 10049 10043 10038 10033 10028 10022 10017 10012 10007 10003 9997 9992 9988 9983 9977 9972 9966 9961 9957 9954 9951 9947 9941 9935 9930 9926 9921 9917 9912 9907 9903 9899 9895 9891 9886 9882 9878 9873 9869 9865 9861 9859 9856 9853 9850 9847 9844 9841 9839 9837 9836 9834 9833 9831 9830 9829 9828 9828 9828 9828 9828 9829 9830 9831 9833 9834 9834 9834 9835 9837
10160 10150 10141 10131 10122 10112 10104 10094 10085 10079 10072 10065 10058 10052 10045 10039 10033 10028 10023 10019 10014 10009 10003 9999 9995 9990 9986 9981 9976 9971 9966 9961 9955 9950 9945 9943 9940 9936 9931 9926 9921 9916 9912 9907 9902 9898 9894 9890 9886 9882 9878 9873 9869 9865 9862 9858 9854 9851 9848 9845 9843 9840 9837 9835 9833 9831 9829 9828 9827 9826 9824 9823 9823 9823 9823 9823 9823 9823 9824 9826 9827 9828 9829 9829 9830
10150 10140 10130 10120 10111 10102 10093 10084 10076 10069 10063 10055 10048 10042 10036 10029 10023 10018 10014 10010 10005 10000 9995 9991 9987 9983 9979 9974 9970 9965 9961 9956 9950 9944 9938 9935 9932 9930 9926 9922 9917 9912 9907 9902 9897 9893 9889 9885 9881 9877 9873 9869 9864 9860 9857 9854 9850 9847 9844 9841 9838 9835 9833 9831 9828 9826 9824 9823 9822 9821 9820 9819 9818 9818 9817 9817 9817 9818 9818 9819 9820 9822 9823 9823 9824
10139 10129 10119 10109 10100 10091 10082 10074 10066 10059 10053 10046 10039 10032 10026 10019 10013 10009 10005 10001 9997 9992 9987 9983 9979 9975 9971 9967 9963 9959 9955 9951 9945 9939 9933 9928 9925 9922 9919 9916 9913 9908 9902 9897 9892 9888 9884 9880 9876 9872 9869 9865 9861 9857 9853 9849 9846 9843 9840 9836 9833 9830 9828 9826 9824 9822 9820 9818 9817 9816 9815 9814 9813 9813 9812 9812 9812 9812 9813 9813 9814 9815 9816 9817 9818
10128 10118 10109 10099 10090 10080 10072 10064 10056 10049 10043 10037 10030 10024 10017 10010 10004 10000 9997 9993 9989 9984 9979 9975 9971 9967 9963 9959 9956 9952 9948 9945 9940 9935 9929 9923 9918 9915 9912 9909 9907 9903 9898 9893 9887 9883 9879 9875 9872 9868 9864 9860 9857 9853 9849 9845 9842 9838 9835 9832 9829 9826 9823 9821 9819 9817 9816 9814 9813 9811 9810 9809 9808 9808 9807 9807 9807 9806 9807 9807 9808 9809 9810 9810 9811
10118 10107 10098 10090 10081 10071 10063 10055 10047 10040 10034 10028 10021 10015 10008 10001 9995 9992 9989 9985 9981 9977 9972 9967 9963 9959 9955 9952 9948 9945 9941 9938 9934 9930 9925 9919 9913 9908 9904 9901 9899 9896 9893 9888 9883 9878 9873 9869 9866 9863 9859 9855 9851 9848 9845 9841 9838 9834 9831 9828 9825 9822 9819 9816 9814 9813 9811 9810 9808 9807 9806 9805 9803 9802 9802 9802 9802 9802 9801 9802 9802 9803 9804 9804 9805